Vertical_Velocity
2 1 0 -0 0 0 1 -1 1 1 -1 1 2 1 -2 -3 -0 -1 -2 -1 -2 -2 -1 -0 0 0 1 1 1 0 2 1 2 1 -0 0 0 0 1 0 -1 -1 0 0
1 0 -2 -0 -0 -0 0 0 -0 -0 -2 -1 -1 -1 -1 -2 -2 -2 -1 -2 -2 -2 -1 -1 -0 1 2 1 1 1 1 -0 -0 1 0 -1 0 -1 -1 -0 -0 0 0 0
0 -0 -0 -0 -1 -1 -0 0 -0 -1 1 0 -2 1 -2 0 1 0 0 -1 -2 -3 -3 -3 -1 0 1 1 0 0 -0 -0 -0 1 1 0 1 -0 -1 -0 0 -1 -1 -0
0 -1 -2 -0 1 -1 1 -0 -1 -1 -1 -2 -2 -2 -1 -0 2 2 0 0 1 -1 -3 -3 -2 -1 -0 -0 -0 0 1 1 2 1 1 0 0 -0 0 -0 -0 -1 -1 -0
2 -1 -1 -1 -1 -1 -1 -2 -2 -2 -1 -1 -0 -2 1 -3 2 3 2 3 -1 2 0 -2 -1 -2 -1 2 3 2 0 -1 -1 -1 -1 -1 1 1 0 -0 -0 0 1 1
1 0 -0 -1 -1 -1 -2 -1 -1 -1 -2 1 0 -1 10 -1 0 2 2 2 1 -0 -0 -1 0 0 0 -0 -1 -1 1 1 1 1 1 1 1 1 0 -0 -1 -2 -2 -1
0 -0 -0 -1 -1 -0 -0 0 -5 -6 -6 -3 0 -8 5 -3 -4 1 2 1 -1 -1 1 -0 -0 1 1 -0 -1 -2 -2 -2 -3 -2 -2 -2 -2 -2 -2 -1 -0 -1 -1 -1
-0 2 3 4 2 -1 -0 0 1 -15 -4 -3 2 -8 -1 -2 -2 1 -0 2 -1 3 -0 3 1 1 0 -0 -0 -0 -1 -1 -0 0 2 3 2 0 -1 -1 -2 -2 -2 -2
-5 1 1 1 0 2 4 -0 -0 -7 2 -5 -1 1 -1 -4 -2 -2 -3 1 1 1 2 1 1 0 -0 0 1 1 0 0 1 1 1 1 1 1 2 1 1 1 1 0
-1 -9 5 3 -0 5 -2 -1 -2 -0 -16 -15 0 -6 -2 -1 -1 -3 -2 -1 1 1 -0 -1 -2 -2 -0 -0 0 -0 0 -1 -1 1 1 1 1 1 0 -0 -1 -1 -1 -2
0 2 5 3 3 0 -1 1 2 1 2 -9 -11 6 -1 -2 -0 -3 -0 -2 -3 0 0 -1 -0 -0 -0 0 -0 -0 -0 1 0 0 1 1 1 2 1 1 1 2 2 -1
2 -11 -1 -1 3 2 1 -2 3 -5 -0 -3 -3 0 1 0 -1 -2 0 -1 0 1 1 -1 -3 -3 -3 -2 -3 -1 -0 0 -0 -1 -0 2 2 3 2 0 -2 -3 -0 -2
1 -13 -6 -5 3 1 -0 4 1 -3 -0 6 -15 3 -3 -2 -2 -0 2 0 2 1 0 0 0 1 1 1 0 -0 -0 1 0 -1 0 -2 -1 -2 -2 -3 -3 -2 -1 0
-8 3 6 -8 4 -2 0 5 5 1 -7 1 6 -1 6 -4 -3 -1 -2 2 -2 -1 -1 -2 -3 -1 1 1 0 -0 0 1 -1 -1 -1 -1 -4 -4 -3 -3 -3 -2 -4 -2
-6 -10 -5 6 4 -4 -1 5 3 -5 13 -21 37 -19 2 1 -1 -2 -1 -1 1 2 1 -1 0 1 2 -0 -1 1 0 -0 -1 -1 -1 -1 -0 0 1 1 2 1 1 1
0 -17 -3 -4 10 -5 -21 6 10 8 15 -17 -2 5 -4 4 -1 1 2 2 1 2 1 2 -0 -2 -0 1 1 2 -0 -1 -1 -1 0 -1 -1 0 -1 -0 1 -1 -1 -2
-2 0 -0 -15 -4 -6 -23 26 9 5 4 -3 -1 3 -3 5 2 -1 1 2 4 3 2 2 0 -1 1 -1 0 -0 -3 -4 -2 -1 -3 -1 -1 0 -1 -1 -2 -1 -1 -1
-2 2 -2 -14 2 -27 15 6 7 -1 4 4 -1 -1 -0 -2 0 -1 0 0 1 0 -0 -1 2 1 1 -2 -0 -3 -3 -2 -1 -3 -2 -3 -2 -1 -2 -2 -2 -3 -4 -2
1 1 -9 -8 2 -8 8 1 4 6 -6 4 4 2 3 -2 3 4 6 1 -1 0 2 2 1 -0 -1 -1 0 -0 -1 -2 -1 -1 -1 -3 -1 -0 -2 -1 -2 -4 -3 -3
5 3 -1 6 -11 -18 8 4 0 -2 -3 8 5 3 6 5 2 5 3 -1 -1 1 2 1 0 -0 -1 -2 1 1 1 0 0 -3 1 1 -1 -2 -3 -2 -3 -2 -3 -1
3 3 4 5 -7 -3 -1 -2 -2 5 -3 4 2 -0 1 3 6 1 0 4 4 0 -2 -1 -2 -1 -4 -0 0 1 0 1 1 -1 -1 -1 -4 -2 -3 1 -4 -2 -2 -1
-4 -9 2 1 1 -3 -1 2 3 6 3 -3 3 10 -1 -0 3 2 1 0 -1 -2 -2 -2 2 -1 -1 3 3 0 0 1 1 -1 -0 -1 -2 -4 -1 -1 -3 -5 -3 -2
-5 -3 -9 -4 1 2 -1 -5 -2 -2 2 3 5 -1 2 3 1 -1 0 1 -2 -1 -2 -2 -2 -2 -4 2 2 -0 1 2 0 -1 -1 -2 -2 -1 -3 -1 -3 -2 -4 -2
2 -5 -7 -10 18 -1 -1 -1 2 -0 2 4 9 3 0 0 1 2 0 -0 -2 -1 0 -0 1 2 -5 -1 -1 4 3 1 1 -0 -0 -0 0 -0 -4 -5 -3 1 -2 -0
-1 -6 -3 5 4 -8 1 0 -1 -0 1 3 2 3 -0 -1 -1 -3 -2 -0 -1 -0 2 2 -0 0 -1 -0 -5 2 3 1 1 -1 -1 -1 -1 -2 -1 -3 -1 -1 -6 -5
-0 -3 -6 -4 -1 -4 1 -4 -1 -3 -1 0 0 -0 -1 -0 2 -1 -3 -0 1 0 3 1 -1 0 1 -0 -6 1 1 1 1 0 -1 -2 0 -2 -2 0 2 -9 -6 -2
Height
5782 5782 5780 5779 5778 5777 5776 5775 5774 5772 5770 5770 5766 5764 5761 5758 5756 5754 5752 5749 5747 5744 5741 5739 5736 5734 5733 5732 5731 5730 5730 5731 5731 5732 5732 5733 5733 5733 5732 5732 5732 5733 5734 5735
5780 5778 5777 5776 5774 5773 5772 5770 5769 5768 5765 5764 5761 5758 5755 5753 5751 5749 5746 5743 5741 5738 5735 5732 5729 5727 5726 5724 5723 5723 5723 5723 5723 5723 5724 5724 5724 5723 5723 5722 5723 5723 5724 5725
5776 5775 5773 5772 5770 5769 5767 5765 5763 5762 5760 5758 5756 5754 5751 5749 5747 5744 5741 5738 5735 5732 5728 5725 5723 5721 5719 5717 5716 5715 5715 5714 5713 5713 5713 5714 5714 5713 5713 5712 5713 5713 5713 5713
5773 5771 5769 5768 5766 5764 5762 5759 5757 5755 5753 5752 5750 5748 5746 5743 5741 5739 5736 5732 5729 5726 5723 5720 5716 5714 5713 5711 5709 5708 5707 5706 5705 5705 5704 5704 5704 5703 5703 5702 5701 5702 5702 5702
5770 5766 5764 5763 5760 5758 5756 5753 5751 5749 5746 5745 5744 5742 5740 5736 5734 5732 5730 5727 5723 5720 5717 5713 5710 5707 5705 5703 5702 5701 5699 5698 5697 5696 5695 5694 5693 5692 5691 5690 5690 5689 5688 5688
5762 5760 5759 5757 5754 5752 5749 5746 5743 5741 5738 5737 5735 5734 5733 5728 5726 5724 5721 5719 5715 5712 5709 5706 5702 5700 5697 5695 5693 5691 5689 5688 5687 5686 5685 5684 5682 5681 5680 5679 5678 5677 5676 5675
5755 5753 5752 5750 5748 5745 5742 5739 5735 5731 5730 5728 5726 5722 5724 5720 5718 5716 5712 5708 5705 5701 5699 5697 5695 5692 5689 5686 5683 5682 5680 5678 5677 5675 5673 5671 5670 5668 5667 5666 5665 5664 5662 5662
5746 5746 5745 5743 5741 5738 5735 5733 5729 5721 5720 5717 5716 5712 5711 5709 5708 5705 5702 5698 5695 5691 5688 5686 5684 5682 5679 5676 5674 5672 5669 5667 5664 5663 5661 5660 5658 5656 5654 5652 5651 5649 5648 5646
5737 5737 5736 5735 5733 5731 5727 5725 5721 5715 5711 5706 5705 5703 5699 5698 5696 5693 5690 5686 5683 5681 5677 5675 5672 5671 5668 5666 5663 5661 5658 5655 5653 5651 5649 5646 5643 5641 5639 5636 5634 5632 5630 5628
5729 5724 5726 5725 5723 5722 5718 5715 5712 5707 5700 5694 5694 5691 5689 5688 5684 5680 5676 5673 5670 5667 5664 5662 5659 5656 5654 5652 5649 5647 5644 5641 5639 5636 5633 5630 5627 5624 5621 5619 5616 5613 5610 5608
5720 5717 5716 5715 5714 5711 5708 5704 5701 5696 5691 5686 5681 5679 5677 5675 5670 5665 5660 5658 5656 5654 5651 5648 5645 5642 5640 5637 5633 5631 5628 5625 5623 5620 5617 5614 5611 5608 5604 5601 5597 5595 5592 5589
5711 5703 5702 5701 5700 5698 5695 5692 5689 5684 5681 5673 5669 5665 5663 5663 5656 5651 5648 5645 5642 5639 5636 5632 5628 5625 5623 5620 5617 5614 5612 5609 5606 5603 5600 5595 5591 5588 5584 5581 5577 5574 5571 5568
5698 5693 5690 5687 5688 5684 5679 5677 5673 5668 5663 5657 5657 5653 5649 5643 5639 5637 5635 5632 5628 5624 5620 5616 5612 5608 5604 5601 5597 5594 5592 5590 5586 5583 5580 5577 5573 5570 5566 5562 5558 5553 5550 5546
5683 5680 5679 5675 5674 5668 5664 5660 5657 5652 5643 5644 5638 5638 5634 5629 5625 5622 5617 5614 5610 5607 5603 5599 5594 5590 5587 5583 5580 5577 5574 5571 5568 5564 5561 5557 5553 5549 5544 5539 5534 5530 5526 5523
5668 5664 5661 5659 5657 5653 5649 5645 5639 5631 5632 5622 5627 5617 5615 5610 5607 5604 5601 5596 5592 5588 5584 5580 5576 5572 5569 5566 5563 5559 5555 5552 5548 5544 5540 5535 5530 5525 5520 5516 5512 5508 5504 5500
5652 5646 5643 5642 5639 5633 5629 5625 5619 5619 5614 5605 5605 5602 5598 5594 5589 5586 5582 5578 5574 5570 5566 5563 5559 5556 5553 5549 5546 5542 5537 5532 5529 5524 5520 5514 5509 5504 5499 5494 5490 5486 5482 5477
5633 5629 5624 5623 5617 5611 5610 5608 5604 5598 5594 5589 5584 5582 5578 5575 5571 5566 5563 5560 5557 5553 5550 5547 5544 5540 5536 5532 5528 5523 5519 5516 5511 5506 5501 5495 5491 5487 5482 5478 5473 5467 5463 5458
5616 5611 5604 5601 5598 5591 5594 5586 5581 5576 5572 5567 5562 5558 5556 5554 5549 5546 5545 5543 5541 5538 5534 5530 5526 5523 5518 5514 5510 5505 5501 5497 5492 5487 5482 5479 5475 5471 5466 5461 5456 5451 5446 5441
5600 5594 5587 5581 5578 5575 5574 5568 5564 5559 5553 5549 5544 5539 5538 5537 5534 5531 5528 5527 5525 5522 5518 5513 5509 5506 5501 5497 5492 5487 5482 5479 5474 5470 5466 5463 5460 5457 5452 5447 5441 5436 5431 5425
5582 5576 5571 5565 5558 5552 5554 5548 5543 5537 5534 5533 5528 5525 5523 5520 5519 5516 5514 5511 5506 5502 5499 5496 5494 5488 5483 5479 5475 5471 5467 5463 5460 5457 5454 5451 5447 5443 5438 5433 5427 5421 5414 5409
5564 5557 5552 5545 5537 5534 5530 5527 5523 5521 5521 5514 5511 5509 5508 5505 5504 5501 5497 5493 5490 5484 5481 5478 5474 5471 5467 5463 5460 5457 5453 5450 5446 5444 5442 5438 5434 5430 5424 5418 5412 5407 5401 5396
5547 5538 5534 5527 5521 5518 5513 5509 5510 5506 5501 5499 5497 5493 5488 5486 5484 5481 5478 5476 5473 5469 5465 5462 5458 5455 5452 5449 5446 5443 5440 5438 5435 5433 5430 5426 5422 5417 5412 5406 5400 5394 5388 5382
5533 5523 5519 5512 5506 5501 5496 5491 5489 5487 5486 5482 5481 5476 5474 5471 5469 5466 5464 5461 5458 5456 5452 5447 5444 5440 5438 5436 5434 5432 5430 5427 5424 5421 5418 5414 5410 5405 5399 5394 5388 5382 5375 5369
5513 5506 5501 5494 5495 5487 5481 5478 5475 5470 5469 5468 5467 5464 5462 5459 5457 5454 5452 5448 5445 5443 5439 5435 5432 5429 5426 5424 5423 5422 5419 5416 5413 5410 5406 5403 5399 5394 5388 5382 5376 5370 5364 5357
5496 5490 5486 5483 5477 5471 5469 5465 5461 5458 5456 5456 5454 5452 5450 5448 5446 5443 5439 5436 5434 5431 5427 5424 5421 5418 5416 5414 5412 5410 5408 5405 5402 5398 5395 5391 5388 5382 5377 5370 5363 5357 5351 5345
5484 5479 5473 5470 5464 5459 5457 5452 5450 5448 5447 5445 5444 5442 5440 5438 5435 5432 5427 5425 5422 5420 5417 5414 5411 5408 5406 5404 5401 5399 5396 5394 5390 5387 5383 5379 5375 5370 5365 5359 5353 5344 5340 5334